Regional Weather Roundup
Issued by NWS

Home | Current Version | Previous Version | Graphics & Text | Print | Product List | Glossary On
Versions: 1 2 3 4 5 6 7 8 9 10 11 12 13 14 15 16 17 18 19 20 21 22 23 24 25 26 27 28 29 30 31 32 33 34 35 36 37 38 39 40 41 42 43 44 45 46 47 48 49 50
000
ASUS45 KCYS 260510
RWRWY

WYOMING REGIONAL WEATHER ROUNDUP
NATIONAL WEATHER SERVICE CHEYENNE WY
1000 PM MST WED FEB 25 2015

NOTE:  "FAIR" INDICATES FEW OR NO CLOUDS BELOW 12,000 FEET
WITH NO SIGNIFICANT WEATHER AND/OR OBSTRUCTIONS TO VISIBILITY.

WYZ001-260600-
YELLOWSTONE NATIONAL PARK

CITY           SKY/WX    TMP DP  RH WIND       PRES   REMARKS
LK YELLOWSTONE   N/A      2  -3  80 NW3       30.08S
W YELLOWSTONE  NOT AVBL

$$
WYZ002>013-054>058-071-098>099-260600-
NORTHERN WYOMING

CITY           SKY/WX    TMP DP  RH WIND       PRES   REMARKS
JACKSON        FAIR      18  10  73 CALM      30.08S
CODY           CLOUDY    12  10  92 N10       30.20S WCI  -1
GREYBULL       MOCLDY    18   6  59 NW20G29   30.23R WCI   2
WORLAND        CLOUDY    20  11  68 W10       30.24R WCI   9
SHERIDAN       LGT SNOW  13   7  77 NW7       30.31S WCI   3
BUFFALO        LGT SNOW   9   6  88 N14       30.22S FOG     WCI  -7
GILLETTE       CLOUDY     9   3  77 N14       30.27R WCI  -7
HULETT         CLOUDY     9   3  78 N6        30.28S WCI  -1
NEWCASTLE      FAIR       9   1  72 NW10      30.27R WCI  -6

$$
WYZ014>020-022>026-101>103-260600-
CENTRAL WYOMING

CITY           SKY/WX    TMP DP  RH WIND       PRES   REMARKS
BIG PINEY      FAIR      18  11  74 S7        30.09R WCI   9
PINEDALE       FAIR      14   7  73 CALM      30.08R
DUBOIS         CLOUDY    19  16  86 S7        30.05S WCI  10
LANDER         CLOUDY    21  15  78 CALM      30.15S
RIVERTON       FLURRIES  19  14  81 NE6       30.15S WCI  11
CASPER         FLURRIES  12   6  77 NE10      30.19F WCI  -1
DOUGLAS        MOCLDY    10   4  76 N10       30.24S WCI  -4

$$
WYZ021-027>030-104>119-260600-
SOUTHERN WYOMING

CITY           SKY/WX    TMP DP  RH WIND       PRES   REMARKS
EVANSTON       CLOUDY    28  15  58 CALM      30.08R
FORT BRIDGER   FAIR      24  17  73 W6        30.09S WCI  17
ROCK SPRINGS   FLURRIES  20  17  88 E13       30.10R WCI   7
DIXON          FAIR      22  14  70 N7        30.11R WCI  13
RAWLINS        FAIR      14  10  84 NE3       30.10S
SARATOGA       CLOUDY    16  12  86 NW8       30.09S WCI   5
LARAMIE        CLOUDY    12  10  92 N10       30.05S WCI  -1
CHEYENNE       LGT SNOW  14   8  77 N20G29    30.11R WCI  -3
TORRINGTON     FLURRIES  16   5  62 N14G23    30.25R WCI   2
PINE BLUFFS    FAIR      16   9  73 N17       30.17R WCI   0

$$


USA.gov is the U.S. government's official web portal to all federal, state and local government web resources and services.